Location: Paris
(48.6709°N, 2.3750°E)
Time: 14:06:12
(UTC+02:00)

NOAA 18 - Pass Details

Date: 30 June 2022
Orbit: 839 x 860 km, 98.9° (Epoch: 13 August)

Event Time Altitude Azimuth Distance (km) Brightness Sun altitude
Exits shadow 23:08:50 10° 157° (SSE) 2,445 7.0 -9.3°
Maximum altitude 23:14:15 78° 73° (ENE) 879 5.3 -9.8°
Drops below altitude 10° 23:19:49 10° 347° (NNW) 2,505 8.9 -10.3°
Sets 23:22:12 0° 347° (NNW) 3,448 9.8 -10.6°
